Flag for Ecuador Weather past 2 weeks in Guayaquil, Ecuador

Now
79 °F

Partly sunny.


Feels Like: 82 °F
Forecast: 77 / 88 °F
Wind: 6 mph from Southwest

Location: Guayaquil / Simon Bolivar

Current Time: May 26, 2015 at 8:59:21 AM

Latest Report: May 26, 2015 at 8:00 AM


Visibility: N/A

Pressure: 29.86 "Hg

Humidity: 84%

Dew point: 73 °F

Location of GuayaquilLocation

Historic Weather in Guayaquil — Graph

°F

Guayaquil temperature yesterday

Maximum temperature yesterday: 90 °F (at 1:00 PM)
Minimum temperature yesterday: 77 °F (at 12:00 AM)
Average temperature yesterday: 82 °F

Past Weeks' High & Low Weather Summary

 TemperatureHumidityPressure
High93 °F (May 13, 4:00 PM)100% (May 15, 12:00 AM)29.92 "Hg (May 15, 12:00 AM)
Low75 °F (May 15, 12:00 AM)52% (May 17, 4:00 PM)29.65 "Hg (May 11, 3:00 PM)
Average82 °F77%29.82 "Hg
* Reported May 11 8:00 AM — May 26 7:00 AM, Guayaquil, Weather by CustomWeather, © 2015

Note: Actual official high and low records may vary slightly from our data, if they occured in-between our weather recording intervals... More about our weather records

Advertising

Guayaquil weather history for previous 24 hours

 ConditionsComfort  
Time TempWeatherWind HumidityBarometerVisibility
7:00 AM
Tue, May 26
77 °FPartly sunny.7 mph89%29.86 "HgN/A
6:00 AM77 °FPartly cloudy.7 mph89%29.83 "HgN/A
5:00 AM77 °FPartly cloudy.7 mph89%29.83 "HgN/A
4:00 AM77 °FPassing clouds.8 mph89%29.80 "HgN/A
3:00 AM79 °FPassing clouds.5 mph79%29.83 "HgN/A
2:00 AM79 °FPartly cloudy.5 mph79%29.83 "HgN/A
1:00 AM79 °FPassing clouds.9 mph84%29.86 "HgN/A
12:00 AM79 °FPartly cloudy.12 mph84%29.86 "HgN/A
11:00 PM
Mon, May 25
79 °FPassing clouds.10 mph84%29.86 "HgN/A
10:00 PM79 °FPartly cloudy.12 mph84%29.86 "HgN/A
9:00 PM81 °FClear.10 mph79%29.83 "Hg10 mi
8:00 PM84 °FPassing clouds.6 mph70%29.80 "HgN/A
7:00 PM84 °FPassing clouds.5 mph70%29.80 "HgN/A
6:00 PM86 °FBroken clouds.7 mph66%N/AN/A
5:00 PM90 °FPassing clouds.7 mph59%29.77 "HgN/A
4:00 PM88 °FBroken clouds.8 mph62%29.77 "HgN/A
3:00 PM88 °FScattered clouds.6 mph59%29.77 "HgN/A
2:00 PM88 °FScattered clouds.7 mph59%29.80 "HgN/A
1:00 PM90 °FScattered clouds.6 mph59%29.83 "HgN/A
12:00 PM88 °FScattered clouds.6 mph59%29.86 "HgN/A
11:00 AM84 °FScattered clouds.5 mph66%29.89 "HgN/A
10:00 AM82 °FScattered clouds.2 mph74%29.89 "HgN/A
9:00 AM81 °FBroken clouds.3 mph79%29.92 "HgN/A
8:00 AM79 °FBroken clouds.6 mph84%29.89 "HgN/A
Weather by CustomWeather, © 2015

See weather overviewHow to use our weather pages